TimeCST,TemperatureF,Dew PointF,Humidity,Sea Level PressureIn,VisibilityMPH,Wind Direction,Wind SpeedMPH,Gust SpeedMPH,PrecipitationIn,Events,Conditions,WindDirDegrees,DateUTC
12:55 AM,54.3,50.5,87,30.14,10.0,NW,8.1,-,N/A,,Clear,320,2012-11-24 06:55:00
1:55 AM,54.3,49.1,83,30.14,10.0,NNW,6.9,-,N/A,,Clear,330,2012-11-24 07:55:00
2:55 AM,52.7,45.0,75,30.14,10.0,NNW,12.7,-,N/A,,Clear,340,2012-11-24 08:55:00
3:55 AM,50.0,42.3,75,30.15,10.0,NNW,11.5,-,N/A,,Clear,340,2012-11-24 09:55:00
4:55 AM,48.0,40.1,74,30.18,10.0,NNW,11.5,-,N/A,,Clear,340,2012-11-24 10:55:00
5:55 AM,45.9,38.3,75,30.20,10.0,NNW,8.1,-,N/A,,Clear,330,2012-11-24 11:55:00
6:55 AM,44.1,37.0,76,30.23,10.0,NNW,6.9,-,N/A,,Clear,340,2012-11-24 12:55:00
7:55 AM,46.9,36.3,67,30.24,10.0,NNW,10.4,-,N/A,,Clear,340,2012-11-24 13:55:00
8:55 AM,50.5,35.6,57,30.24,10.0,North,12.7,-,N/A,,Clear,10,2012-11-24 14:55:00
9:55 AM,53.1,33.8,48,30.24,10.0,NNW,10.4,-,N/A,,Clear,340,2012-11-24 15:55:00
10:55 AM,56.1,33.4,42,30.22,10.0,NNW,11.5,-,N/A,,Clear,330,2012-11-24 16:55:00
11:55 AM,58.3,26.8,30,30.18,10.0,North,15.0,19.6,N/A,,Clear,10,2012-11-24 17:55:00
12:55 PM,60.4,27.0,28,30.16,10.0,NNW,11.5,-,N/A,,Clear,330,2012-11-24 18:55:00
1:55 PM,60.6,25.2,26,30.14,10.0,North,11.5,-,N/A,,Clear,350,2012-11-24 19:55:00
2:55 PM,60.3,24.3,25,30.14,10.0,North,10.4,-,N/A,,Clear,360,2012-11-24 20:55:00
3:55 PM,58.8,25.3,28,30.14,10.0,NNW,9.2,-,N/A,,Clear,340,2012-11-24 21:55:00
4:55 PM,52.5,27.5,38,30.15,10.0,North,5.8,-,N/A,,Clear,360,2012-11-24 22:55:00
5:55 PM,47.3,28.4,48,30.17,10.0,Calm,Calm,-,N/A,,Clear,0,2012-11-24 23:55:00
6:55 PM,43.0,29.7,59,30.18,10.0,NNW,3.5,-,N/A,,Clear,340,2012-11-25 00:55:00
7:55 PM,41.9,29.5,61,30.19,10.0,NNW,4.6,-,N/A,,Clear,330,2012-11-25 01:55:00
8:55 PM,39.7,28.9,65,30.19,10.0,North,9.2,-,N/A,,Clear,360,2012-11-25 02:55:00
9:55 PM,41.4,28.9,61,30.19,10.0,North,6.9,-,N/A,,Clear,350,2012-11-25 03:55:00
10:55 PM,39.7,27.3,61,30.17,10.0,North,8.1,-,N/A,,Clear,360,2012-11-25 04:55:00
11:55 PM,39.0,26.4,61,30.17,10.0,North,3.5,-,N/A,,Clear,10,2012-11-25 05:55:00